星链-6218 (STARLINK-6218 )

导读 | 星芒AI

STARLINK-6218 是 SpaceX 星链计划中的一颗低轨通信卫星,属于第62批发射的星链卫星群。该卫星运行在约550公里高度的近地轨道,旨在为全球用户提供高速互联网服务。作为星链星座的一部分,STARLINK-6218 采用先进的推进和通信技术,支持高带宽、低延迟的网络连接。该卫星于2023年发射,是SpaceX构建全球宽带网络的重要组成之一。

基本信息
目录编号:
57368
目录名称:
STARLINK-6218
国际标识:
2023-099AS
轨道中心:
EARTH
卫星名称:
星链-6218
卫星全名:
星链-6218 (STARLINK-6218 )
卫星状态:
在轨 (已飞行841 天)
发射日期:
2023-07-16 UTC
国别 :
美国 (US)
星等 :
--
轨道信息
数据来源 国际轨道数据
星历时间: 2025-11-02T18:11:05+0800
1天前
查看轨道信息
半长轴: 6937.219km
偏心率: 0.0000857
轨道倾角: 43.003°
近地点辐角 266.742°
升交点赤经 207.371°
平近点角 93.333°
近地点: 558.489km
远地点: 559.679km
周期: 95.838分钟
每日圈数: 15.025352
详细信息
固有亮度:
5
最大亮度:
2.5
卫星平台:
Starlink v1.5
覆盖范围:
全球
运营商:
太空探索技术公司
运营商所在国:
美国
制造商(研发单位):
太空探索技术公司
制造商所在国:
美国
使用方式:
暂无
卫星简介
星链(Starlink)计划是由太空探索技术公司(SpaceX)提出的一个巨型低轨卫星互联网星座项目,计划在2019年至2024年间在太空搭建由约1.2万颗卫星组成的“星链”网络,其中1584颗将部署在地球上空550千米处的近地轨道,并从2020年开始工作。该卫星仍在工作。
2D轨道图
3D轨道图
轨道高度分析图
轨道倾角分析图
轨道综合分析图
查看轨道综合分析图